Retour au catalogue

IGS R-7

ActifMilitaireSSO
NORAD 55329·PAYLOAD·🇯🇵 Japan

Lancé Jan 26, 2023 depuis Tanegashima Space Center

Loading…

Prochains Passages (prochaines 24 heures)

TLE

PériméSource: Mike McCants

Époque: Aug 26, 2026, 21:10 UTC

1 55329U 23012A   26238.88242450 0.00000000  00000-0  00000-0 0    09
2 55329  97.3646 316.2833 0002042  18.7175 341.2823 15.25980876    08

Suivez IGS R-7 en temps réel avec AllMySat

Download on the App Store